Terminal Aerodrome Forecast
Issued by NWS

Home | Current Version | Previous Version | Text Only | Print | Product List | Glossary On
Versions: 1 2 3 4 5 6 7 8 9 10 11 12 13 14 15
000
FTUS42 KTBW 221700
TAFPGD
TAF
KPGD 221733Z 2218/2318 21007KT P6SM VCTS SCT025CB BKN070
     FM230000 19006KT P6SM VCTS SCT025CB BKN080
     FM230600 14004KT P6SM SCT020 BKN040
     FM231200 VRB03KT P6SM VCSH SCT025 BKN080
     FM231500 12007KT P6SM VCTS SCT035CB BKN100=

USA.gov is the U.S. government's official web portal to all federal, state and local government web resources and services.